Regional Weather Roundup
Issued by NWS

Home | Current Version | Previous Version | Graphics & Text | Print | Product List | Glossary On
Versions: 1 2 3 4 5 6 7 8 9 10 11 12 13 14 15 16 17 18 19 20 21 22 23 24 25 26 27 28 29 30 31 32 33 34 35 36 37 38 39 40 41 42 43 44 45 46 47 48 49 50
000
ASUS43 KMPX 030410
RWRMN
WEATHER ROUNDUP FOR MINNESOTA
NATIONAL WEATHER SERVICE TWIN CITIES/CHANHASSEN MN
1100 PM CDT MON MAY 02 2016


NOTE: "FAIR" INDICATES FEW OR NO CLOUDS BELOW 12,000 FEET WITH NO
SIGNIFICANT WEATHER AND/OR OBSTRUCTIONS TO VISIBILITY. N/A MEANS
CURRENT SKY AND/OR WEATHER CONDITIONS ARE NOT AVAILABLE.

MNZ060>063-068>070-030500-
   Twin Cities Metro

CITY           SKY/WX    TMP DP  RH WIND       PRES   REMARKS
TWIN CITIES    CLEAR     57  32  38 SW5       30.00F
ST PAUL        CLEAR     52  39  61 CALM      30.00F
CRYSTAL        CLEAR     52  35  52 CALM      29.99S
BLAINE         CLEAR     52  37  58 CALM      29.99F
EDEN PRAIRIE   CLEAR     53  34  48 SW5       29.99F
SOUTH ST PAUL  CLEAR     52  35  51 CALM      30.00S
LAKE ELMO      FAIR      45  37  76 CALM      30.00F
$$
MNZ001>005-007-008-013>017-022>024-027-028-030500-
   Northwest Minnesota

CITY           SKY/WX    TMP DP  RH WIND       PRES   REMARKS
BEMIDJI        PTCLDY    46  30  54 CALM      29.94F
HALLOCK        CLOUDY    55  25  30 CALM      29.92S
ROSEAU         CLOUDY    55  37  50 SW7       29.91F
WARROAD        CLOUDY    55  37  50 SW7       29.91F
THIEF RVR FALL CLOUDY    54  23  30 CALM      29.95S
CROOKSTON      PTCLDY    57  36  44 W12       29.96S
FOSSTON        CLEAR     48  30  49 SW8       29.96S
DETROIT LAKES  CLEAR     54  32  43 NW10      29.99R
MOORHEAD       CLEAR     55  36  47 NW8       29.98S
PARK RAPIDS    CLEAR     48  32  53 SW6       29.95F
MAHNOMEN       FAIR      54  33  45 W13       29.96S
$$
MNZ006-009>011-018-025>026-030500-
   North Central Minnesota

CITY           SKY/WX    TMP DP  RH WIND       PRES   REMARKS
BAUDETTE       CLOUDY    50  31  48 SW6       29.91F
FLAG ISLAND    PTCLDY    52  37  58 SW7       29.87F
INTL FALLS     CLOUDY    40  34  79 S3        29.90F
WASKISH        CLOUDY    48  39  71 CALM      29.93F
BIG FORK       PTCLDY    43  30  61 CALM      29.94S
LONGVILLE      CLEAR     43  34  70 CALM      29.95F
GRAND RAPIDS   CLEAR     48  28  46 S5        29.96S
CRANE LAKE     PTCLDY    37  32  81 CALM      29.93S
ORR            CLOUDY    52  21  30 CALM      29.90F
COOK           PTCLDY    46  30  53 CALM      29.93F
WALKER         FAIR      51  31  45 W7        29.95S
$$
MNZ012-019>021-037-030500-
   Northeast Minnesota

CITY           SKY/WX    TMP DP  RH WIND       PRES   REMARKS
DULUTH         PTCLDY    47  31  53 CALM      29.95F
ELY            PTCLDY    52  30  43 S6        29.92F
HIBBING        CLEAR     39  31  72 CALM      29.93F
EVELETH        CLEAR     43  32  65 W3        29.95F
DULUTH HARBOR  CLEAR     41  37  87 CALM      29.98F
TWO HARBORS    PTCLDY    43  36  75 CALM      29.94F
SILVER BAY     PTCLDY    37  32  81 CALM      29.93F
GRAND MARAIS     N/A     38  32  79 CALM      29.94F
G MARAIS ARPRT CLEAR     37  28  70 CALM      29.94F
$$
MNZ029>031-032-039>041-046>048-054>057-064-030500-
   West Central Minnesota

CITY           SKY/WX    TMP DP  RH WIND       PRES   REMARKS
FERGUS FALLS   CLEAR     50  34  53 W5        29.96S
WHEATON        CLEAR     55  37  50 W5        30.01S
MORRIS         CLEAR     52  32  46 SW3       29.98S
ALEXANDRIA     CLEAR     52  30  43 SW5       30.00S
ELBOW LAKE     FAIR      54  34  47 S5        29.99S
WADENA         CLEAR     46  34  61 SW3       29.97F
GLENWOOD       CLEAR     54  30  40 SW3       30.00S
APPLETON       CLEAR     54  39  58 SW5       29.99S
BENSON         CLEAR     48  34  57 CALM      29.99S
ORTONVILLE     CLEAR     55  32  41 SW3       29.99S
MADISON        CLEAR     54  32  43 SW3       29.99F
WILLMAR        FAIR      54  37  54 SE3       30.01S
$$
MNZ033>034-036-042>043-049>051-058-059-030500-
   Central Minnesota

CITY           SKY/WX    TMP DP  RH WIND       PRES   REMARKS
ST CLOUD       CLEAR     49  34  56 CALM      29.99S
SAUK CENTRE    FAIR      48  33  55 CALM      29.99S
PAYNESVILLE    CLEAR     53  32  46 CALM      30.00S
AITKIN         CLEAR     48  30  49 CALM      29.95F
PINE RIVER     CLEAR     45  37  76 CALM      29.99F
BRAINERD       CLEAR     49  32  52 CALM      29.97F
STAPLES        CLEAR     46  32  57 SW5       29.97F
LONG PRAIRIE   FAIR      45  37  76 CALM      30.00S
LITTLE FALLS   CLEAR     45  32  61 CALM      29.99S
LITCHFIELD     CLEAR     54  37  54 CALM      30.01S
BUFFALO        CLEAR     50  37  59 CALM      30.01S
MAPLE LAKE     CLEAR     52  38  60 CALM      30.01S
HUTCHINSON     CLOUDY    53  39  58 S3        30.02S
$$
MNZ037-044-045-052-053-030500-
   East Central Minnesota

CITY           SKY/WX    TMP DP  RH WIND       PRES   REMARKS
PRINCETON      CLEAR     45  36  70 CALM      29.99F
MORA           CLEAR     45  37  76 CALM      30.00F
CAMBRIDGE      CLEAR     48  36  61 CALM      29.98S
RUSH CITY      MOCLDY    46  35  64 CALM      29.99F
MOOSE LAKE     PTCLDY    45  32  61 SW3       29.96S
HINCKLEY       FAIR      43  37  81 CALM      29.98S
CLOQUET        CLEAR     45  34  65 CALM      29.96F
MCGREGOR       CLEAR     50  34  53 SW3       29.97F
$$
MNZ071>073-080-081-089-090-097-098-030500-
   Southwest Minnesota

CITY           SKY/WX    TMP DP  RH WIND       PRES   REMARKS
MONTEVIDEO     CLEAR     52  30  43 W3        30.01F
GRANITE FALLS  CLOUDY    58  38  46 S9        30.02S
CANBY          CLEAR     55  39  54 SW3       30.02S
MARSHALL       PTCLDY    53  37  54 SW10      30.01F
REDWOOD FALLS  MOCLDY    52  38  58 S8        30.01S
OLIVIA         CLOUDY    54  36  50 S6        30.00F
PIPESTONE      CLEAR     50  41  71 CALM      30.04R
WINDOM         CLEAR     52  39  62 CALM      30.03F
WORTHINGTON    CLEAR     49  42  77 SW5       30.04S
JACKSON        CLEAR     52  37  58 S6        30.04S
TRACY          PTCLDY    53  41  64 SW7       30.02F
SLAYTON        CLEAR     48  40  71 W3        30.04S
$$
MNZ065>067-074>077-082>085-091>093-030500-
   South Central Minnesota

CITY           SKY/WX    TMP DP  RH WIND       PRES   REMARKS
MANKATO        CLEAR     55  36  47 SW6       30.02F
NEW ULM        CLEAR     52  39  62 S5        30.02S
ST JAMES       CLEAR     46  37  71 S6        30.04S
FAIRMONT       CLEAR     52  39  62 CALM      30.03S
GLENCOE        CLEAR     53  40  61 CALM      30.00F
FARIBAULT      CLEAR     54  36  50 SW2       30.02F
OWATONNA       CLEAR     50  37  62 SW6       30.02F
WASECA         CLEAR     50  36  57 SW3       30.04S
ALBERT LEA     CLEAR     52  45  76 SW3       30.04S
$$
MNZ078>079-086>088-094>096-030500-
   Southeast Minnesota

CITY           SKY/WX    TMP DP  RH WIND       PRES   REMARKS
ROCHESTER      MOCLDY    50  42  74 SW7       30.03F
RED WING       CLEAR     46  39  76 CALM      29.99F
STANTON        CLEAR     47  36  65 S5        30.00S
DODGE CENTER   PTCLDY    48  39  71 SW6       30.02F
WINONA         PTCLDY    52  45  76 CALM      30.01F
AUSTIN         PTCLDY    50  41  71 CALM      30.03F
PRESTON        PTCLDY    49  38  65 SW7       30.03F
$$
ABBREVIATIONS USED IN REMARKS
   TC - TEMPERATURES IN CELSIUS
  WCI - WIND CHILL INDEX
   HX - HEAT INDEX
  VSB - VISIBILITY
$$



USA.gov is the U.S. government's official web portal to all federal, state and local government web resources and services.